Notices

What's New in latest Release from April 7th, 2021:

- Updated Glossary, including Speed of Maximum Gust, and Total Hourly Precipitation

- Updated national and regional climate services offices contacts and prices information

- Addition of station inventory lists for 1981-2010, 1971-2000, and 1961-1990 Normals.

If you haven't already, please take our survey and provide feedback about our website: https://eccc.sondage-survey.ca/f/LanguageSelection.aspx?s=442ca660-fcf1-47c0-95a9-59707d6fd709

Hourly Data Report for May 09, 2003

TORONTO CITY
ONTARIO

43°40'00.000" N
79°24'00.000" W
112.50 m
6158355
71508
XTO

Download Data

Hourly Data (May 2003)
Hourly Data Report for May 9, 2003
TIME
LST
Temp Definition
°C
Dew Point Definition
°C
Rel Hum Definition
%
Precip. Amount Definition
mm

Wind Dir Definition
10's deg

Wind Spd Definition
km/h
Visibility Definition
km
Stn Press Definition
kPa
Hmdx Definition


Wind Chill Definition


Weather Definition


00:00 12.2 -1.7 38   LegendMM LegendMM LegendMM 100.40     LegendNANA
01:00 11.6 -1.7 40   LegendMM LegendMM LegendMM 100.43     LegendNANA
02:00
03:00 10.3 -1.0 45   LegendMM LegendMM LegendMM 100.35     LegendNANA
04:00 9.9 -0.8 47   LegendMM LegendMM LegendMM 100.36     LegendNANA
05:00 9.4 0.2 53   LegendMM LegendMM LegendMM 100.29     LegendNANA
06:00 10.0 0.6 52   LegendMM LegendMM LegendMM 100.38     LegendNANA
07:00 10.5 1.9 55   LegendMM LegendMM LegendMM 100.30     LegendNANA
08:00
09:00 11.8 3.5 57   LegendMM LegendMM LegendMM 100.32     LegendNANA
10:00 11.9 3.6 57   LegendMM LegendMM LegendMM 100.28     LegendNANA
11:00 11.9 3.4 56   LegendMM LegendMM LegendMM 100.21     LegendNANA
12:00 13.2 3.7 52   LegendMM LegendMM LegendMM 100.15     LegendNANA
13:00 14.3 3.4 48   LegendMM LegendMM LegendMM 100.08     LegendNANA
14:00 16.0 -0.8 32   LegendMM LegendMM LegendMM 100.04     LegendNANA
15:00 16.3 0.3 34   LegendMM LegendMM LegendMM 100.01     LegendNANA
16:00 14.8 1.0 39   LegendMM LegendMM LegendMM 99.98     LegendNANA
17:00 13.6 2.4 47   LegendMM LegendMM LegendMM 100.00     LegendNANA
18:00 14.3 2.8 46   LegendMM LegendMM LegendMM 100.01     LegendNANA
19:00 13.8 2.0 45   LegendMM LegendMM LegendMM 99.94     LegendNANA
20:00 12.8 3.2 52   LegendMM LegendMM LegendMM 99.97     LegendNANA
21:00 12.6 3.4 53   LegendMM LegendMM LegendMM 100.01     LegendNANA
22:00 11.7 4.4 61   LegendMM LegendMM LegendMM 99.93     LegendNANA
23:00 12.1 4.0 58   LegendMM LegendMM LegendMM 99.85     LegendNANA

Notes on Data Quality.

Legend

  • E = Estimated
  • M = Missing
  • NA = Not Available*
  • [empty] = Indicates an unobserved value
Date modified: